CCA167 ZBAA-RJTT

Flight info

Callsign CCA167
Flight time N/A
Altitude 33100
Route MUGLO2G MUGLO W34 VAPGU W100 ORAVA W201 UNSEK A326 DONVO G597 AGAVO/N0460F331 Y644 EGOBA G597 LANAT Y71 XAC
Aircraft A321/M-SDE3FGHIRWY/LB1

Departure

Time 2026-05-01 13:27
Airport Beijing Capital International Airport (ZBAA)

Arrival

Time N/A
Airport Tokyo Haneda International Airport (RJTT)
Time Latitude Longitude Altitude Speed Heading
2026-05-01 12:41 40.07042 116.60818 124 ft 0 kts 243°
2026-05-01 13:11 40.07046 116.60829 119 ft 3 kts 245°
2026-05-01 13:11 40.07054 116.60854 119 ft 3 kts 254°
2026-05-01 13:11 40.07059 116.60879 120 ft 3 kts 260°
2026-05-01 13:12 40.07062 116.60905 120 ft 2 kts 263°
2026-05-01 13:12 40.07063 116.60928 121 ft 3 kts 282°
2026-05-01 13:12 40.07057 116.60948 120 ft 3 kts 322°
2026-05-01 13:12 40.07040 116.60959 118 ft 3 kts 350°
2026-05-01 13:13 40.07032 116.60961 121 ft 0 kts 353°
2026-05-01 13:15 40.07050 116.60958 120 ft 5 kts 353°
2026-05-01 13:16 40.07108 116.60949 120 ft 12 kts 353°
2026-05-01 13:16 40.07213 116.60933 121 ft 16 kts 353°
2026-05-01 13:16 40.07319 116.60916 123 ft 15 kts 353°
2026-05-01 13:17 40.07446 116.61032 119 ft 7 kts 81°
2026-05-01 13:17 40.07453 116.61098 122 ft 9 kts 83°
2026-05-01 13:18 40.07534 116.61156 121 ft 11 kts 353°
2026-05-01 13:18 40.07622 116.61143 122 ft 15 kts 353°
2026-05-01 13:18 40.07726 116.61126 120 ft 17 kts 353°
2026-05-01 13:18 40.07834 116.61110 121 ft 15 kts 352°
2026-05-01 13:19 40.07943 116.61091 122 ft 16 kts 354°
2026-05-01 13:19 40.08064 116.61074 121 ft 19 kts 352°
2026-05-01 13:19 40.08279 116.61028 122 ft 11 kts 317°
2026-05-01 13:20 40.08287 116.60940 124 ft 9 kts 262°
2026-05-01 13:20 40.08279 116.60860 120 ft 9 kts 264°
2026-05-01 13:20 40.08271 116.60767 123 ft 11 kts 263°
2026-05-01 13:21 40.08253 116.60571 124 ft 17 kts 263°
2026-05-01 13:21 40.08238 116.60410 122 ft 18 kts 263°
2026-05-01 13:21 40.08224 116.60258 122 ft 16 kts 263°
2026-05-01 13:21 40.08211 116.60118 123 ft 15 kts 263°
2026-05-01 13:22 40.08195 116.59950 124 ft 13 kts 263°
2026-05-01 13:22 40.08200 116.59848 121 ft 9 kts 312°
2026-05-01 13:22 40.08257 116.59826 124 ft 9 kts 353°
2026-05-01 13:22 40.08305 116.59818 121 ft 12 kts 353°
2026-05-01 13:23 40.08415 116.59801 122 ft 19 kts 353°
2026-05-01 13:23 40.08545 116.59781 123 ft 19 kts 353°
2026-05-01 13:23 40.08674 116.59760 121 ft 19 kts 353°
2026-05-01 13:23 40.08808 116.59739 123 ft 19 kts 353°
2026-05-01 13:24 40.08919 116.59723 122 ft 11 kts 353°
2026-05-01 13:24 40.08977 116.59695 122 ft 8 kts 298°
2026-05-01 13:24 40.08974 116.59632 124 ft 3 kts 255°
2026-05-01 13:25 40.08974 116.59624 124 ft 3 kts 267°
2026-05-01 13:25 40.08971 116.59585 119 ft 7 kts 258°
2026-05-01 13:25 40.08934 116.59515 120 ft 8 kts 232°
2026-05-01 13:25 40.08918 116.59493 123 ft 3 kts 223°
2026-05-01 13:26 40.08880 116.59493 122 ft 0 kts 173°
2026-05-01 13:26 40.08842 116.59500 122 ft 29 kts 173°
2026-05-01 13:26 40.08409 116.59569 123 ft 96 kts 173°
2026-05-01 13:27 40.07559 116.59703 122 ft 148 kts 173°
2026-05-01 13:27 40.06406 116.59884 280 ft 173 kts 173°
2026-05-01 13:27 40.04087 116.60224 1753 ft 167 kts 172°
2026-05-01 13:28 40.01786 116.60562 2870 ft 171 kts 173°
2026-05-01 13:28 40.00591 116.60751 3344 ft 174 kts 173°
2026-05-01 13:29 39.98110 116.61165 3975 ft 195 kts 174°
2026-05-01 13:29 39.95127 116.61644 4233 ft 237 kts 174°
2026-05-01 13:30 39.87961 116.62753 6476 ft 267 kts 176°
2026-05-01 13:31 39.84239 116.63328 7769 ft 272 kts 176°
2026-05-01 13:31 39.78609 116.64196 9638 ft 280 kts 175°
2026-05-01 13:32 39.74638 116.64799 10330 ft 303 kts 175°
2026-05-01 13:33 39.67836 116.65836 10702 ft 354 kts 174°
2026-05-01 13:33 39.62760 116.66786 11097 ft 379 kts 171°
2026-05-01 13:34 39.57549 116.68188 11969 ft 386 kts 169°
2026-05-01 13:34 39.52444 116.70485 12852 ft 395 kts 152°
2026-05-01 13:35 39.47618 116.73977 13710 ft 400 kts 152°
2026-05-01 13:35 39.45173 116.75716 14076 ft 402 kts 152°
2026-05-01 13:35 39.40230 116.79214 14780 ft 407 kts 152°
2026-05-01 13:36 39.37770 116.80957 15133 ft 410 kts 152°
2026-05-01 13:36 39.35268 116.82734 15480 ft 412 kts 153°
2026-05-01 13:36 39.29992 116.85690 16125 ft 416 kts 160°
2026-05-01 13:37 39.27290 116.87053 16455 ft 418 kts 160°
2026-05-01 13:37 39.24575 116.88418 16821 ft 420 kts 160°
2026-05-01 13:37 39.21842 116.89794 17176 ft 423 kts 160°
2026-05-01 13:37 39.19165 116.91402 17525 ft 427 kts 151°
2026-05-01 13:38 39.14787 116.96644 18205 ft 438 kts 126°
2026-05-01 13:38 39.13339 117.00054 18497 ft 444 kts 113°
2026-05-01 13:38 39.12467 117.03882 18803 ft 448 kts 100°
2026-05-01 13:39 39.12177 117.07889 19105 ft 452 kts 94°
2026-05-01 13:39 39.11984 117.11932 19419 ft 454 kts 94°
2026-05-01 13:39 39.11788 117.16004 19739 ft 457 kts 94°
2026-05-01 13:39 39.11588 117.20098 20047 ft 459 kts 94°
2026-05-01 13:40 39.11382 117.24215 20354 ft 462 kts 94°
2026-05-01 13:40 39.11173 117.28349 20648 ft 464 kts 94°
2026-05-01 13:40 39.10958 117.32511 20939 ft 467 kts 94°
2026-05-01 13:40 39.10739 117.36692 21228 ft 469 kts 94°
2026-05-01 13:41 39.10520 117.40836 21508 ft 472 kts 94°
2026-05-01 13:41 39.10298 117.45059 21786 ft 474 kts 94°
2026-05-01 13:41 39.10077 117.49306 22055 ft 477 kts 94°
2026-05-01 13:41 39.09849 117.53575 22331 ft 479 kts 94°
2026-05-01 13:42 39.09617 117.57861 22604 ft 481 kts 94°
2026-05-01 13:42 39.09378 117.62169 22877 ft 484 kts 94°
2026-05-01 13:42 39.09134 117.66496 23153 ft 486 kts 94°
2026-05-01 13:42 39.08889 117.70846 23428 ft 488 kts 94°
2026-05-01 13:43 39.08645 117.75215 23657 ft 491 kts 94°
2026-05-01 13:43 39.08401 117.79601 23843 ft 493 kts 94°
2026-05-01 13:43 39.08152 117.84020 24032 ft 495 kts 94°
2026-05-01 13:43 39.07904 117.88393 24200 ft 498 kts 94°
2026-05-01 13:44 39.07647 117.92846 24369 ft 500 kts 95°
2026-05-01 13:44 39.07386 117.97320 24524 ft 502 kts 95°
2026-05-01 13:44 39.07118 118.01816 24680 ft 505 kts 96°
2026-05-01 13:44 39.06584 118.06278 24820 ft 506 kts 102°
2026-05-01 13:45 39.05874 118.10723 24964 ft 508 kts 102°
2026-05-01 13:45 39.05167 118.15177 25101 ft 510 kts 102°
2026-05-01 13:45 39.04457 118.19660 25256 ft 511 kts 102°
2026-05-01 13:45 39.03751 118.24141 25449 ft 512 kts 102°
2026-05-01 13:46 39.03043 118.28630 25634 ft 512 kts 102°
2026-05-01 13:46 39.02338 118.33058 25799 ft 513 kts 102°
2026-05-01 13:46 39.01617 118.37554 25978 ft 514 kts 102°
2026-05-01 13:46 39.00891 118.42059 26150 ft 515 kts 102°
2026-05-01 13:47 39.00163 118.46567 26332 ft 516 kts 102°
2026-05-01 13:47 38.99431 118.51080 26503 ft 517 kts 102°
2026-05-01 13:47 38.98698 118.55612 26640 ft 518 kts 102°
2026-05-01 13:47 38.97965 118.60156 26793 ft 520 kts 102°
2026-05-01 13:48 38.97228 118.64699 26962 ft 520 kts 102°
2026-05-01 13:48 38.96487 118.69256 27121 ft 521 kts 102°
2026-05-01 13:48 38.95741 118.73823 27278 ft 522 kts 103°
2026-05-01 13:48 38.95001 118.78326 27436 ft 523 kts 103°
2026-05-01 13:49 38.94248 118.82900 27592 ft 524 kts 103°
2026-05-01 13:49 38.93494 118.87480 27751 ft 525 kts 103°
2026-05-01 13:49 38.92735 118.92072 27907 ft 526 kts 103°
2026-05-01 13:49 38.91973 118.96659 28067 ft 526 kts 103°
2026-05-01 13:50 38.91208 119.01260 28221 ft 527 kts 103°
2026-05-01 13:50 38.90443 119.05861 28379 ft 528 kts 103°
2026-05-01 13:50 38.89675 119.10476 28534 ft 529 kts 103°
2026-05-01 13:50 38.88904 119.15094 28689 ft 529 kts 103°
2026-05-01 13:51 38.88130 119.19706 28850 ft 530 kts 103°
2026-05-01 13:51 38.87350 119.24334 28997 ft 531 kts 103°
2026-05-01 13:51 38.86565 119.28970 29155 ft 531 kts 103°
2026-05-01 13:51 38.85788 119.33542 29306 ft 532 kts 103°
2026-05-01 13:52 38.84997 119.38176 29457 ft 533 kts 103°
2026-05-01 13:52 38.84203 119.42821 29607 ft 533 kts 103°
2026-05-01 13:52 38.83407 119.47473 29756 ft 534 kts 103°
2026-05-01 13:52 38.82613 119.52125 29910 ft 535 kts 103°
2026-05-01 13:53 38.81817 119.56786 30042 ft 535 kts 103°
2026-05-01 13:53 38.80216 119.66122 30297 ft 536 kts 103°
2026-05-01 13:53 38.79410 119.70795 30439 ft 537 kts 103°
2026-05-01 13:54 38.78600 119.75463 30580 ft 537 kts 103°
2026-05-01 13:54 38.77788 119.80132 30718 ft 537 kts 103°
2026-05-01 13:54 38.76987 119.84738 30857 ft 537 kts 103°
2026-05-01 13:54 38.76190 119.89416 30998 ft 537 kts 102°
2026-05-01 13:55 38.75413 119.94099 31143 ft 537 kts 102°
2026-05-01 13:55 38.74650 119.98779 31289 ft 538 kts 102°
2026-05-01 13:55 38.73882 120.03472 31431 ft 538 kts 102°
2026-05-01 13:55 38.72971 120.08108 31564 ft 537 kts 110°
2026-05-01 13:56 38.71570 120.12527 31697 ft 534 kts 119°
2026-05-01 13:56 38.69709 120.16619 31833 ft 530 kts 128°
2026-05-01 13:56 38.67448 120.20322 31962 ft 525 kts 137°
2026-05-01 13:56 38.64873 120.23596 32094 ft 521 kts 142°
2026-05-01 13:57 38.62456 120.27083 32227 ft 529 kts 128°
2026-05-01 13:57 38.60637 120.31127 32358 ft 535 kts 116°
2026-05-01 13:57 38.59386 120.35616 32481 ft 537 kts 105°
2026-05-01 13:57 38.58612 120.40291 32611 ft 538 kts 101°
2026-05-01 13:58 38.57864 120.44978 32739 ft 539 kts 102°
2026-05-01 13:58 38.57083 120.49656 32865 ft 539 kts 102°
2026-05-01 13:58 38.56283 120.54337 33014 ft 539 kts 103°
2026-05-01 13:58 38.55484 120.59019 33061 ft 540 kts 102°
2026-05-01 13:59 38.53936 120.68399 33054 ft 540 kts 102°
2026-05-01 13:59 38.52433 120.77802 33053 ft 540 kts 102°
2026-05-01 14:00 38.50929 120.87136 33045 ft 540 kts 102°
2026-05-01 14:00 38.49394 120.96495 33056 ft 541 kts 102°
2026-05-01 14:01 38.47832 121.05889 33050 ft 541 kts 102°
2026-05-01 14:01 38.46259 121.15287 33043 ft 541 kts 102°
2026-05-01 14:02 38.44714 121.24683 33040 ft 542 kts 101°
2026-05-01 14:02 38.43198 121.34098 33028 ft 542 kts 101°
2026-05-01 14:03 38.41697 121.43455 33026 ft 542 kts 101°
2026-05-01 14:03 38.40163 121.52878 33041 ft 543 kts 101°
2026-05-01 14:04 38.38588 121.62287 33038 ft 543 kts 102°
2026-05-01 14:04 38.37250 121.70175 33037 ft 543 kts 102°
2026-05-01 14:05 38.35402 121.81106 33045 ft 543 kts 101°
2026-05-01 14:05 38.33827 121.90501 33047 ft 543 kts 102°
2026-05-01 14:06 38.32232 121.99901 33054 ft 543 kts 102°
2026-05-01 14:06 38.30636 122.09230 33059 ft 543 kts 102°
2026-05-01 14:07 38.29014 122.18631 33053 ft 543 kts 102°
2026-05-01 14:08 38.26675 122.32746 33064 ft 544 kts 99°
2026-05-01 14:08 38.24809 122.42050 33061 ft 543 kts 113°
2026-05-01 14:09 38.21031 122.50272 33061 ft 536 kts 134°
2026-05-01 14:09 38.15928 122.56999 33047 ft 532 kts 140°
2026-05-01 14:10 38.10721 122.63683 33045 ft 532 kts 139°
2026-05-01 14:10 38.05541 122.70401 33042 ft 533 kts 139°
2026-05-01 14:11 38.00373 122.77147 33049 ft 533 kts 139°
2026-05-01 14:11 37.92600 122.87233 33060 ft 533 kts 139°
2026-05-01 14:12 37.87439 122.93888 33060 ft 533 kts 139°
2026-05-01 14:12 37.82244 123.00587 33062 ft 533 kts 139°
2026-05-01 14:13 37.77924 123.06144 33064 ft 533 kts 139°
2026-05-01 14:13 37.71837 123.13949 33065 ft 533 kts 139°
2026-05-01 14:14 37.66633 123.20626 33064 ft 533 kts 139°
2026-05-01 14:14 37.61454 123.27242 33065 ft 533 kts 139°
2026-05-01 14:15 37.56310 123.33996 33067 ft 537 kts 133°
2026-05-01 14:15 37.51808 123.41523 33067 ft 538 kts 130°
2026-05-01 14:16 37.47315 123.49060 33065 ft 538 kts 130°
2026-05-01 14:16 37.42812 123.56581 33064 ft 538 kts 130°
2026-05-01 14:17 37.38339 123.64038 33058 ft 538 kts 130°
2026-05-01 14:17 37.36084 123.67792 32909 ft 537 kts 130°
2026-05-01 14:17 37.33835 123.71538 32972 ft 538 kts 130°
2026-05-01 14:18 37.29334 123.79036 32967 ft 537 kts 130°
2026-05-01 14:18 37.25585 123.85262 32967 ft 537 kts 130°
2026-05-01 14:19 37.20492 123.94165 32969 ft 540 kts 121°
2026-05-01 14:19 37.17756 124.02926 32965 ft 541 kts 101°
2026-05-01 14:20 37.17307 124.16853 32962 ft 536 kts 84°
2026-05-01 14:21 37.17652 124.26196 32962 ft 536 kts 84°
2026-05-01 14:21 37.17914 124.35545 32965 ft 537 kts 85°
2026-05-01 14:22 37.18211 124.49599 32969 ft 537 kts 85°
2026-05-01 14:22 37.18415 124.58965 32969 ft 537 kts 85°
2026-05-01 14:23 37.18627 124.68337 32968 ft 538 kts 85°
2026-05-01 14:23 37.18825 124.77710 32967 ft 538 kts 85°
2026-05-01 14:24 37.19017 124.87016 32966 ft 538 kts 85°
2026-05-01 14:24 37.19199 124.96395 32960 ft 538 kts 85°
2026-05-01 14:25 37.19378 125.05761 32961 ft 538 kts 85°
2026-05-01 14:25 37.19550 125.15141 32959 ft 538 kts 85°
2026-05-01 14:26 37.19772 125.29212 32960 ft 538 kts 85°
2026-05-01 14:27 37.19928 125.38590 32969 ft 538 kts 85°
2026-05-01 14:27 37.20079 125.47922 32956 ft 539 kts 85°
2026-05-01 14:28 37.20270 125.62024 32960 ft 539 kts 85°
2026-05-01 14:28 37.20403 125.71427 32964 ft 540 kts 85°
2026-05-01 14:29 37.20522 125.80846 32968 ft 540 kts 85°
2026-05-01 14:30 37.20717 125.99695 32963 ft 541 kts 85°
2026-05-01 14:31 37.20872 126.13788 32965 ft 541 kts 85°
2026-05-01 14:31 37.20959 126.23230 32961 ft 542 kts 85°
2026-05-01 14:32 37.21035 126.32686 32959 ft 542 kts 85°
2026-05-01 14:32 37.21102 126.42146 32960 ft 543 kts 85°
2026-05-01 14:33 37.21157 126.51611 32960 ft 543 kts 85°
2026-05-01 14:33 37.21211 126.61026 32956 ft 543 kts 85°
2026-05-01 14:34 37.21262 126.70502 32965 ft 543 kts 85°
2026-05-01 14:34 37.21303 126.79984 32970 ft 544 kts 85°
2026-05-01 14:35 37.21405 126.89463 32972 ft 541 kts 79°
2026-05-01 14:35 37.23022 126.98486 32975 ft 522 kts 60°
2026-05-01 14:35 37.24546 127.02572 32973 ft 511 kts 51°
2026-05-01 14:36 37.26456 127.06269 32972 ft 500 kts 42°
2026-05-01 14:36 37.30930 127.12734 32973 ft 492 kts 37°
2026-05-01 14:37 37.35488 127.19149 32976 ft 492 kts 37°
2026-05-01 14:37 37.40040 127.25591 32983 ft 493 kts 38°
2026-05-01 14:38 37.44589 127.32049 32990 ft 493 kts 38°
2026-05-01 14:38 37.46725 127.35483 32988 ft 506 kts 47°
2026-05-01 14:38 37.48446 127.39403 32985 ft 519 kts 58°
2026-05-01 14:38 37.49662 127.43731 32971 ft 531 kts 69°
2026-05-01 14:39 37.50431 127.48313 32968 ft 535 kts 72°
2026-05-01 14:39 37.51878 127.57448 32958 ft 536 kts 71°
2026-05-01 14:40 37.53341 127.66659 32948 ft 536 kts 71°
2026-05-01 14:40 37.54804 127.75882 32948 ft 537 kts 71°
2026-05-01 14:41 37.56261 127.85114 32957 ft 537 kts 71°
2026-05-01 14:41 37.57717 127.94352 32953 ft 537 kts 71°
2026-05-01 14:42 37.59151 128.03525 32957 ft 537 kts 71°
2026-05-01 14:42 37.60582 128.12762 32952 ft 537 kts 72°
2026-05-01 14:43 37.62010 128.22011 32959 ft 537 kts 72°
2026-05-01 14:43 37.63435 128.31252 32946 ft 537 kts 72°
2026-05-01 14:44 37.64847 128.40506 32939 ft 537 kts 72°
2026-05-01 14:44 37.66949 128.54404 32930 ft 538 kts 72°
2026-05-01 14:45 37.68748 128.68361 32893 ft 548 kts 83°
2026-05-01 14:45 37.68584 128.73191 32888 ft 555 kts 94°
2026-05-01 14:46 37.67815 128.77977 32877 ft 559 kts 105°
2026-05-01 14:46 37.64584 128.86874 32869 ft 559 kts 123°
2026-05-01 14:46 37.62561 128.91078 32863 ft 560 kts 122°
2026-05-01 14:47 37.58529 128.99484 32862 ft 560 kts 122°
2026-05-01 14:48 37.53159 129.10677 32855 ft 561 kts 122°
2026-05-01 14:48 37.46407 129.24629 32847 ft 561 kts 123°
2026-05-01 14:49 37.38963 129.39983 32844 ft 562 kts 123°
2026-05-01 14:50 37.30800 129.56738 32846 ft 562 kts 123°
2026-05-01 14:51 37.24657 129.69280 32843 ft 562 kts 123°
2026-05-01 14:52 37.18510 129.81807 32842 ft 562 kts 123°
2026-05-01 14:53 37.12365 129.94269 32844 ft 563 kts 123°
2026-05-01 14:53 37.08236 130.02609 32844 ft 563 kts 123°
2026-05-01 14:54 37.04102 130.10946 32847 ft 564 kts 123°
2026-05-01 14:54 36.99961 130.19276 32847 ft 564 kts 123°
2026-05-01 14:55 36.95808 130.27611 32843 ft 564 kts 123°
2026-05-01 14:55 36.91683 130.35870 32845 ft 564 kts 123°
2026-05-01 14:56 36.87521 130.44184 32850 ft 564 kts 123°
2026-05-01 14:56 36.83350 130.52479 32852 ft 564 kts 123°
2026-05-01 14:57 36.79163 130.60781 32854 ft 565 kts 123°
2026-05-01 14:57 36.72883 130.73228 32860 ft 566 kts 123°
2026-05-01 14:58 36.68713 130.81464 32866 ft 566 kts 123°
2026-05-01 14:58 36.64508 130.89758 32867 ft 567 kts 123°
2026-05-01 14:59 36.60289 130.98050 32869 ft 567 kts 123°
2026-05-01 14:59 36.56060 131.06347 32871 ft 568 kts 123°
2026-05-01 15:00 36.49703 131.18772 32872 ft 568 kts 123°
2026-05-01 15:01 36.45474 131.27001 32875 ft 569 kts 123°
2026-05-01 15:01 36.41211 131.35282 32878 ft 569 kts 123°
2026-05-01 15:02 36.37203 131.43749 32879 ft 569 kts 112°
2026-05-01 15:02 36.34458 131.52933 32879 ft 568 kts 107°
2026-05-01 15:03 36.31814 131.62174 32876 ft 569 kts 107°
2026-05-01 15:03 36.29162 131.71351 32875 ft 570 kts 107°
2026-05-01 15:04 36.26478 131.80607 32888 ft 571 kts 107°
2026-05-01 15:04 36.23794 131.89864 32891 ft 571 kts 107°
2026-05-01 15:05 36.21110 131.99122 32894 ft 572 kts 107°
2026-05-01 15:05 36.18406 132.08390 32897 ft 572 kts 107°
2026-05-01 15:06 36.15693 132.17657 32898 ft 573 kts 107°
2026-05-01 15:06 36.12995 132.26863 32903 ft 574 kts 107°
2026-05-01 15:07 36.10271 132.36143 32903 ft 574 kts 107°
2026-05-01 15:07 36.07527 132.45426 32889 ft 575 kts 107°
2026-05-01 15:08 36.04775 132.54702 32888 ft 575 kts 107°
2026-05-01 15:08 36.02015 132.63978 32887 ft 575 kts 107°
2026-05-01 15:09 35.99269 132.73193 32888 ft 576 kts 107°
2026-05-01 15:09 35.96494 132.82471 32885 ft 576 kts 107°
2026-05-01 15:10 35.93707 132.91745 32883 ft 577 kts 107°
2026-05-01 15:10 35.89512 133.05658 32883 ft 577 kts 107°
2026-05-01 15:11 35.85297 133.19567 32882 ft 577 kts 107°
2026-05-01 15:12 35.82481 133.28832 32881 ft 577 kts 107°
2026-05-01 15:12 35.78240 133.42725 32887 ft 578 kts 107°
2026-05-01 15:14 35.71145 133.65771 32884 ft 578 kts 107°
2026-05-01 15:14 35.66862 133.79625 32877 ft 577 kts 107°
2026-05-01 15:15 35.61130 133.98062 32866 ft 577 kts 107°
2026-05-01 15:16 35.55388 134.16389 32867 ft 576 kts 107°
2026-05-01 15:18 35.48168 134.39307 32877 ft 575 kts 107°
2026-05-01 15:19 35.42377 134.57549 32876 ft 573 kts 108°
2026-05-01 15:19 35.38045 134.71111 32866 ft 571 kts 108°
2026-05-01 15:20 35.33693 134.84688 32860 ft 571 kts 108°
2026-05-01 15:21 35.30783 134.93732 32860 ft 571 kts 108°
2026-05-01 15:21 35.27869 135.02754 32860 ft 570 kts 108°
2026-05-01 15:22 35.23494 135.16264 32847 ft 569 kts 108°
2026-05-01 15:22 35.20588 135.25186 32851 ft 569 kts 109°
2026-05-01 15:23 35.17662 135.34163 32845 ft 568 kts 109°
2026-05-01 15:23 35.14742 135.43113 32838 ft 567 kts 109°
2026-05-01 15:24 35.11810 135.52046 32836 ft 566 kts 109°
2026-05-01 15:24 35.08870 135.60944 32836 ft 565 kts 109°
2026-05-01 15:25 35.05933 135.69823 32825 ft 564 kts 109°
2026-05-01 15:25 35.03027 135.78630 32809 ft 563 kts 109°
2026-05-01 15:26 35.00874 135.87742 32805 ft 556 kts 96°
2026-05-01 15:26 34.99390 135.96989 32792 ft 556 kts 96°
2026-05-01 15:27 34.97886 136.06238 32778 ft 556 kts 96°
2026-05-01 15:28 34.95601 136.20106 32765 ft 556 kts 97°
2026-05-01 15:28 34.94099 136.29266 32748 ft 554 kts 97°
2026-05-01 15:29 34.91819 136.43055 32758 ft 552 kts 97°
2026-05-01 15:30 34.88750 136.61350 32763 ft 550 kts 98°
2026-05-01 15:31 34.84150 136.88629 32748 ft 549 kts 98°
2026-05-01 15:32 34.81553 137.06857 32741 ft 544 kts 92°
2026-05-01 15:34 34.78721 137.34177 32716 ft 544 kts 94°